Temp
-10 -10 -10 -10 -10 -10 -10 -10 -10 -10 -10 -10 -10 -10 -9 -9 -9 -9 -9 -9 -9 -9 -9 -9 -9 -9 -9 -10 -10 -10 -10 -10 -10 -10 -9 -10 -10 -10 -10 -10 -10 -10 -10
-10 -10 -10 -10 -10 -10 -11 -11 -11 -10 -10 -10 -10 -10 -10 -10 -10 -9 -9 -9 -9 -9 -9 -9 -9 -10 -10 -10 -10 -10 -10 -10 -10 -10 -10 -10 -10 -10 -10 -10 -10 -10 -10
-10 -10 -10 -10 -10 -10 -11 -11 -11 -11 -11 -10 -10 -10 -10 -10 -10 -10 -10 -10 -10 -10 -10 -10 -10 -10 -10 -10 -10 -10 -10 -10 -10 -10 -10 -10 -10 -10 -10 -11 -10 -10 -10
-10 -10 -10 -10 -10 -10 -11 -11 -11 -11 -11 -11 -10 -10 -10 -10 -10 -10 -10 -10 -10 -10 -10 -10 -10 -10 -10 -10 -10 -10 -10 -10 -11 -11 -10 -10 -10 -10 -10 -10 -10 -10 -10
-10 -10 -10 -10 -10 -10 -11 -11 -11 -11 -11 -11 -11 -11 -11 -10 -11 -11 -11 -10 -10 -10 -10 -11 -11 -11 -11 -11 -10 -10 -10 -11 -11 -11 -10 -10 -10 -10 -10 -10 -10 -10 -10
-10 -10 -10 -10 -10 -10 -11 -11 -11 -11 -11 -11 -11 -11 -11 -11 -11 -11 -11 -11 -11 -10 -11 -11 -11 -11 -11 -11 -10 -10 -10 -10 -11 -11 -11 -10 -10 -10 -10 -10 -10 -10 -10
-10 -10 -10 -10 -10 -10 -10 -11 -11 -11 -11 -11 -11 -11 -11 -11 -11 -11 -11 -11 -11 -11 -11 -11 -11 -11 -11 -11 -10 -10 -10 -10 -10 -10 -10 -10 -11 -10 -10 -10 -10 -10 -10
-10 -10 -10 -10 -10 -10 -11 -11 -11 -11 -11 -12 -11 -11 -11 -11 -11 -11 -11 -11 -11 -11 -11 -11 -11 -11 -11 -10 -10 -10 -10 -10 -10 -10 -10 -11 -11 -10 -10 -10 -10 -10 -10
-10 -10 -10 -10 -10 -10 -11 -12 -12 -12 -12 -12 -11 -11 -11 -11 -11 -11 -11 -11 -12 -11 -11 -11 -11 -11 -11 -11 -10 -10 -11 -11 -11 -11 -10 -10 -10 -10 -10 -11 -11 -10 -11
-10 -10 -10 -10 -10 -10 -11 -11 -12 -12 -12 -12 -11 -11 -11 -11 -11 -11 -11 -11 -12 -12 -12 -11 -11 -11 -11 -11 -11 -11 -11 -11 -11 -11 -11 -11 -11 -11 -11 -11 -11 -11 -11
-10 -10 -10 -11 -10 -10 -11 -11 -12 -12 -12 -12 -11 -11 -11 -11 -11 -11 -11 -11 -11 -11 -11 -11 -11 -11 -11 -11 -11 -11 -11 -11 -11 -11 -11 -11 -11 -11 -11 -11 -11 -11 -11
-10 -10 -10 -10 -10 -10 -10 -11 -11 -12 -12 -12 -11 -11 -11 -11 -11 -11 -11 -11 -11 -11 -11 -11 -11 -11 -11 -11 -11 -11 -11 -11 -11 -11 -11 -11 -11 -11 -11 -11 -11 -11 -11
-10 -10 -10 -10 -10 -10 -10 -11 -11 -12 -12 -12 -11 -11 -11 -11 -10 -10 -10 -10 -11 -11 -11 -11 -11 -11 -11 -11 -11 -11 -11 -11 -11 -11 -11 -11 -11 -11 -11 -11 -11 -11 -11
-10 -9 -10 -10 -10 -10 -10 -11 -11 -12 -12 -12 -11 -11 -11 -11 -10 -10 -10 -10 -10 -11 -11 -11 -11 -11 -11 -11 -11 -11 -11 -11 -11 -11 -11 -11 -11 -11 -11 -11 -11 -11 -12
-10 -10 -9 -10 -10 -10 -10 -11 -11 -11 -11 -11 -11 -11 -11 -11 -11 -10 -10 -10 -10 -10 -11 -11 -11 -11 -11 -11 -11 -11 -11 -11 -11 -11 -12 -12 -11 -11 -12 -11 -11 -12 -12
-10 -10 -9 -10 -10 -11 -10 -11 -11 -11 -11 -11 -11 -11 -11 -11 -11 -10 -10 -10 -10 -10 -10 -11 -11 -11 -11 -11 -11 -11 -11 -11 -11 -11 -11 -12 -12 -12 -12 -12 -12 -12 -12
-9 -10 -10 -10 -10 -11 -11 -11 -11 -11 -12 -11 -11 -11 -11 -11 -11 -11 -10 -10 -10 -11 -11 -11 -11 -11 -11 -11 -11 -11 -11 -11 -12 -12 -11 -12 -12 -12 -12 -12 -12 -12 -12
-10 -10 -10 -10 -11 -11 -11 -11 -11 -11 -11 -11 -11 -11 -11 -11 -11 -11 -11 -11 -11 -11 -11 -11 -11 -11 -11 -11 -11 -11 -12 -12 -11 -11 -12 -12 -12 -12 -12 -12 -12 -12 -12
-10 -10 -10 -10 -11 -12 -11 -11 -11 -11 -11 -11 -11 -11 -11 -11 -11 -11 -11 -11 -11 -11 -11 -11 -11 -11 -11 -11 -11 -11 -12 -11 -11 -12 -12 -12 -12 -12 -12 -12 -12 -13 -12
-11 -10 -10 -10 -10 -11 -11 -11 -11 -11 -11 -11 -11 -11 -11 -11 -11 -11 -11 -11 -11 -11 -11 -11 -11 -11 -12 -12 -11 -12 -12 -12 -12 -12 -12 -12 -12 -12 -13 -12 -12 -12 -12
-11 -10 -10 -10 -11 -11 -11 -11 -11 -11 -12 -11 -11 -11 -12 -12 -11 -11 -11 -11 -12 -12 -11 -11 -11 -11 -12 -12 -11 -12 -12 -12 -12 -12 -12 -12 -12 -12 -12 -12 -12 -12 -12
-10 -10 -11 -11 -11 -11 -11 -11 -11 -11 -11 -11 -11 -11 -11 -11 -11 -11 -12 -12 -12 -12 -12 -12 -12 -12 -12 -12 -12 -12 -12 -12 -12 -12 -12 -12 -13 -12 -12 -12 -12 -13 -13
-10 -10 -10 -11 -11 -12 -12 -12 -11 -11 -11 -10 -11 -11 -11 -12 -11 -12 -12 -12 -12 -12 -12 -12 -12 -12 -12 -13 -12 -12 -12 -12 -12 -12 -12 -12 -13 -13 -13 -13 -13 -13 -13
-10 -10 -10 -10 -11 -12 -12 -12 -11 -11 -11 -11 -11 -11 -11 -12 -11 -12 -12 -12 -12 -12 -12 -12 -12 -12 -12 -13 -12 -12 -12 -12 -12 -13 -12 -12 -12 -13 -13 -14 -14 -14 -13
-10 -10 -11 -10 -10 -11 -12 -12 -11 -11 -11 -11 -11 -11 -11 -11 -12 -12 -12 -12 -12 -12 -12 -12 -12 -12 -12 -12 -12 -12 -12 -12 -13 -13 -13 -13 -13 -13 -13 -13 -13 -14 -13
-10 -10 -10 -11 -10 -10 -11 -12 -11 -11 -11 -11 -11 -11 -11 -11 -12 -12 -12 -12 -12 -12 -12 -12 -12 -12 -12 -12 -12 -13 -13 -13 -13 -13 -13 -13 -13 -13 -13 -13 -13 -13 -13
Height
5870 5870 5869 5869 5870 5870 5870 5870 5870 5870 5869 5867 5866 5866 5865 5864 5865 5865 5865 5866 5866 5867 5868 5867 5867 5866 5865 5865 5865 5865 5864 5863 5862 5862 5861 5861 5860 5860 5859 5859 5858 5858 5857
5867 5869 5869 5869 5869 5869 5869 5870 5870 5870 5869 5867 5866 5867 5865 5864 5864 5864 5864 5865 5865 5867 5867 5866 5866 5866 5865 5866 5865 5864 5864 5863 5862 5862 5861 5861 5860 5859 5858 5857 5857 5857 5856
5866 5868 5869 5869 5869 5868 5868 5869 5869 5869 5868 5867 5866 5866 5865 5863 5863 5864 5863 5864 5865 5866 5866 5866 5865 5865 5865 5866 5866 5864 5863 5862 5861 5862 5861 5861 5860 5859 5858 5858 5857 5856 5855
5865 5867 5868 5868 5868 5867 5867 5868 5868 5868 5868 5867 5866 5865 5864 5863 5863 5863 5863 5864 5864 5865 5865 5866 5865 5865 5865 5865 5865 5864 5863 5862 5861 5861 5861 5860 5859 5859 5859 5858 5857 5857 5856
5863 5865 5866 5867 5867 5866 5866 5865 5866 5867 5867 5866 5865 5865 5864 5863 5863 5863 5863 5864 5864 5864 5865 5865 5864 5864 5864 5864 5864 5863 5863 5862 5861 5861 5860 5860 5860 5860 5860 5859 5858 5857 5857
5862 5864 5864 5864 5864 5864 5863 5864 5864 5865 5865 5865 5864 5863 5863 5862 5862 5862 5862 5864 5864 5864 5864 5864 5863 5864 5864 5865 5864 5863 5863 5863 5863 5862 5862 5861 5862 5861 5861 5861 5860 5859 5857
5860 5861 5861 5861 5861 5862 5862 5862 5862 5863 5864 5864 5864 5862 5862 5861 5861 5862 5862 5863 5863 5864 5863 5863 5863 5863 5864 5865 5864 5864 5864 5864 5863 5863 5862 5862 5862 5862 5861 5861 5860 5860 5858
5857 5856 5857 5857 5858 5859 5859 5860 5861 5862 5863 5863 5862 5862 5861 5861 5861 5862 5862 5863 5863 5863 5863 5863 5863 5863 5864 5865 5865 5865 5865 5865 5864 5864 5865 5864 5863 5863 5862 5861 5860 5860 5859
5853 5852 5853 5853 5854 5855 5856 5857 5859 5860 5861 5861 5861 5861 5860 5860 5860 5861 5862 5863 5862 5863 5863 5863 5863 5863 5864 5865 5865 5865 5866 5866 5866 5866 5866 5865 5864 5864 5863 5862 5861 5860 5859
5848 5848 5849 5850 5852 5853 5853 5855 5856 5858 5859 5859 5859 5860 5859 5859 5860 5861 5861 5861 5861 5862 5862 5862 5863 5863 5863 5864 5865 5866 5866 5866 5866 5866 5866 5865 5865 5865 5864 5863 5862 5861 5860
5844 5845 5845 5847 5849 5849 5849 5851 5854 5856 5856 5857 5858 5858 5858 5858 5859 5860 5860 5860 5860 5861 5862 5862 5862 5863 5863 5864 5864 5865 5865 5865 5865 5865 5865 5865 5864 5864 5864 5863 5862 5861 5860
5840 5841 5842 5843 5844 5845 5846 5848 5851 5853 5854 5855 5855 5856 5857 5857 5858 5858 5859 5860 5859 5860 5860 5861 5861 5861 5862 5863 5863 5863 5863 5863 5863 5864 5863 5863 5863 5863 5862 5861 5861 5860 5859
5837 5838 5839 5840 5840 5841 5843 5845 5848 5849 5851 5852 5853 5853 5854 5855 5856 5857 5858 5858 5858 5858 5859 5859 5859 5860 5861 5862 5861 5862 5862 5862 5862 5863 5861 5861 5860 5860 5860 5860 5859 5858 5857
5832 5834 5836 5836 5837 5838 5839 5842 5844 5846 5848 5849 5850 5851 5852 5853 5854 5855 5856 5856 5856 5856 5857 5858 5858 5858 5858 5859 5859 5859 5859 5859 5859 5860 5858 5858 5858 5857 5858 5858 5857 5855 5854
5826 5828 5831 5832 5833 5834 5837 5837 5841 5843 5844 5846 5847 5848 5849 5850 5851 5853 5854 5854 5855 5855 5855 5855 5855 5855 5856 5857 5858 5857 5857 5857 5857 5856 5856 5855 5855 5855 5855 5855 5854 5853 5852
5820 5822 5825 5828 5829 5830 5834 5836 5838 5840 5841 5843 5844 5845 5847 5847 5849 5849 5851 5851 5852 5853 5852 5853 5854 5853 5854 5855 5855 5855 5855 5854 5854 5854 5855 5853 5853 5853 5852 5852 5851 5850 5849
5817 5817 5820 5822 5825 5827 5829 5833 5834 5836 5838 5839 5841 5842 5843 5845 5846 5847 5848 5848 5849 5849 5850 5850 5850 5852 5851 5852 5853 5853 5853 5852 5852 5851 5850 5851 5850 5849 5849 5849 5848 5846 5845
5813 5814 5815 5817 5820 5823 5825 5827 5829 5831 5834 5835 5837 5839 5840 5841 5842 5843 5844 5845 5846 5846 5847 5847 5847 5848 5848 5848 5848 5850 5850 5849 5848 5848 5847 5845 5846 5846 5844 5844 5842 5840 5839
5804 5810 5811 5812 5814 5818 5820 5822 5824 5825 5828 5831 5832 5834 5836 5836 5837 5838 5840 5841 5842 5843 5843 5843 5844 5844 5844 5844 5845 5845 5845 5845 5845 5844 5843 5841 5840 5838 5837 5838 5837 5833 5831
5794 5804 5807 5808 5809 5812 5814 5816 5820 5821 5822 5827 5827 5830 5830 5832 5832 5834 5836 5837 5836 5838 5839 5839 5839 5840 5839 5840 5840 5841 5840 5840 5838 5838 5837 5835 5834 5833 5830 5828 5828 5826 5824
5792 5795 5803 5803 5804 5806 5809 5812 5814 5816 5817 5817 5823 5823 5827 5825 5828 5829 5831 5833 5832 5833 5834 5834 5834 5835 5834 5834 5836 5836 5835 5834 5833 5834 5833 5831 5831 5827 5825 5824 5821 5818 5815
5788 5790 5795 5798 5798 5799 5802 5805 5806 5809 5810 5812 5814 5817 5821 5822 5824 5824 5825 5827 5828 5828 5829 5829 5829 5829 5829 5829 5831 5830 5829 5829 5828 5827 5825 5824 5823 5818 5817 5816 5815 5812 5808
5781 5783 5787 5792 5793 5793 5795 5796 5797 5800 5802 5807 5810 5813 5814 5816 5817 5819 5819 5821 5822 5823 5823 5824 5824 5824 5823 5824 5824 5823 5821 5820 5817 5819 5817 5816 5815 5813 5810 5805 5805 5802 5798
5777 5776 5776 5782 5784 5787 5787 5787 5790 5792 5796 5800 5801 5803 5805 5808 5811 5812 5813 5814 5817 5816 5817 5818 5819 5818 5817 5818 5818 5818 5816 5814 5812 5811 5806 5807 5806 5805 5804 5801 5798 5793 5789
5765 5768 5767 5770 5773 5776 5778 5780 5783 5785 5789 5789 5792 5796 5799 5801 5804 5805 5807 5808 5810 5811 5812 5812 5813 5811 5811 5811 5811 5810 5810 5809 5809 5807 5805 5800 5797 5794 5793 5791 5787 5784 5783
5752 5756 5760 5758 5759 5767 5770 5771 5772 5778 5781 5780 5784 5787 5791 5794 5796 5797 5799 5800 5802 5804 5805 5806 5806 5805 5804 5804 5804 5806 5805 5803 5801 5799 5797 5793 5791 5787 5784 5782 5778 5774 5771
Wind_Speed
7 6 5 4 6 5 4 7 7 10 12 11 6 2 1 1 1 2 2 3 4 4 4 5 6 7 8 7 7 8 9 8 8 7 7 7 7 8 7 7 7 8 9
11 8 9 8 8 8 6 5 6 10 12 12 6 3 1 2 1 1 2 2 2 1 3 5 6 7 7 8 8 8 8 8 8 8 8 8 7 8 7 8 9 9 10
13 10 10 11 11 11 7 7 5 9 9 12 6 3 1 2 2 2 1 1 1 1 3 4 5 6 6 8 9 7 6 7 8 8 8 7 7 8 8 8 8 9 10
16 14 13 14 15 16 9 7 6 7 9 11 7 3 3 2 2 2 2 0 0 2 4 4 4 4 5 7 8 8 7 9 11 9 8 7 9 9 9 9 9 10 11
18 16 16 16 18 17 12 9 8 8 9 8 8 5 3 3 2 3 3 3 3 3 5 3 4 5 6 6 6 6 7 10 12 9 7 9 8 8 8 9 10 11 12
18 17 18 19 19 16 15 11 10 10 10 8 6 6 2 2 3 2 3 5 5 4 3 2 3 4 5 5 5 6 7 9 10 8 5 6 7 8 9 9 10 11 12
15 19 21 21 20 19 18 14 12 11 11 10 9 6 3 3 3 3 3 4 5 6 4 3 2 3 3 3 4 5 6 8 10 11 8 5 6 6 6 7 9 10 11
17 24 21 20 20 21 21 15 13 13 12 9 9 7 4 3 3 4 4 5 7 7 6 3 2 2 3 4 3 5 6 6 7 8 9 8 7 7 6 7 7 8 10
19 21 20 18 19 21 22 17 16 15 13 11 9 8 5 3 2 4 4 5 5 7 7 5 4 4 5 6 6 6 7 9 10 10 9 9 9 9 9 10 11 10 10
20 18 12 13 15 21 24 21 18 17 15 11 9 9 6 4 2 4 4 4 5 6 7 7 7 7 7 8 9 9 9 9 10 12 12 12 12 12 13 14 14 15 15
21 19 11 14 19 19 22 23 21 18 14 12 10 9 6 5 5 6 5 4 4 5 6 8 7 7 8 8 9 10 10 10 11 11 12 13 14 14 15 15 15 16 17
21 17 14 16 17 18 20 22 20 18 13 11 11 8 6 7 7 6 6 5 4 4 5 6 5 6 7 8 9 10 11 12 12 12 13 14 15 16 17 17 17 17 17
23 20 18 18 15 17 21 23 20 18 14 13 12 9 8 8 8 6 7 7 6 6 6 6 6 6 8 9 10 10 11 12 13 13 15 15 16 18 19 18 18 19 21
25 24 18 18 18 16 22 26 22 19 16 14 11 11 10 8 9 8 10 9 8 8 7 7 8 8 10 11 11 12 12 13 15 14 18 17 17 17 18 18 20 21 22
26 23 21 19 17 14 20 24 23 19 17 15 13 13 12 9 10 10 12 11 9 11 9 10 10 11 12 13 14 14 15 17 18 18 17 18 18 18 19 19 21 22 23
30 26 24 20 17 16 18 23 22 20 18 17 15 16 14 12 12 12 14 13 13 12 13 13 12 13 13 14 16 17 17 18 20 21 19 21 20 20 20 21 23 24 24
32 30 26 25 19 19 19 22 24 22 21 20 18 17 17 16 15 15 15 16 15 15 15 17 16 15 16 17 17 19 19 19 20 21 22 21 24 24 25 25 26 28 29
31 35 30 29 23 23 23 23 24 23 22 23 20 20 20 20 18 19 18 18 17 17 17 19 19 20 19 21 21 19 21 21 23 23 25 26 26 28 29 31 33 35 35
30 32 34 33 29 25 27 26 26 28 26 25 24 24 23 24 21 21 20 19 20 20 21 21 21 22 23 21 22 23 24 25 25 26 27 29 31 34 34 34 35 37 37
37 29 31 36 36 33 31 30 29 29 28 26 29 25 26 26 26 23 23 20 23 22 23 23 23 24 24 22 25 26 26 26 28 27 28 31 33 34 37 39 38 38 40
35 33 25 33 36 38 34 33 31 32 32 32 27 28 27 30 27 25 24 23 25 27 24 23 25 24 24 25 28 28 27 28 30 30 30 33 34 36 38 39 41 42 43
34 32 30 30 34 38 39 37 38 36 36 33 30 30 28 30 28 26 26 24 24 22 23 26 26 27 31 26 28 29 28 29 29 30 34 35 36 40 40 41 41 42 44
34 33 32 30 35 35 35 39 41 41 41 32 29 28 30 31 30 27 28 28 26 26 28 28 31 30 31 27 29 29 31 33 34 34 36 37 39 40 42 44 43 45 48
32 31 36 33 32 36 39 40 39 41 41 39 36 33 33 33 32 30 31 32 29 29 30 29 29 32 32 30 31 32 33 33 35 37 42 44 42 44 43 44 45 47 48
37 36 36 38 36 35 38 42 40 39 39 43 42 37 35 34 34 34 32 33 32 32 31 31 32 33 33 34 34 34 36 37 36 39 43 45 47 46 45 45 44 43 44
41 40 36 42 41 36 39 42 43 40 39 44 44 42 38 35 35 36 35 36 35 34 33 33 34 35 35 38 36 36 37 39 40 42 45 45 45 47 46 45 47 49 47
Wind_Direction
267 246 243 284 314 327 347 346 356 350 346 348 335 308 119 96 269 265 321 344 355 336 336 360 352 346 341 338 343 344 345 342 342 337 335 332 339 344 347 359 1 360 357
261 257 260 270 301 305 297 311 331 352 353 353 347 315 37 78 67 11 37 11 353 8 10 8 11 9 8 352 343 345 346 348 346 343 343 345 352 2 3 1 357 351 341
255 264 270 278 296 311 270 283 306 344 347 354 344 303 340 52 10 340 86 114 119 32 20 7 35 33 15 5 360 1 2 357 348 354 354 5 7 12 19 12 359 356 349
273 273 276 295 296 302 257 265 285 324 338 346 352 322 301 328 306 341 7 115 213 334 3 1 45 41 21 12 9 10 3 6 11 13 16 16 20 28 30 33 29 25 21
273 277 286 290 297 288 242 251 263 293 313 331 335 327 259 283 332 332 336 304 292 326 346 359 41 35 19 15 17 20 18 17 18 26 24 24 24 30 32 37 35 30 27
277 284 283 289 285 271 238 245 255 277 288 315 322 321 296 257 283 309 307 304 294 308 334 9 43 28 26 7 15 17 19 17 30 28 19 29 24 29 23 20 24 25 23
276 283 288 283 280 275 255 242 244 260 282 295 321 316 301 268 267 280 288 298 293 308 332 8 11 27 17 5 9 11 14 17 18 24 16 10 5 359 3 9 13 13 14
273 270 275 275 274 268 251 237 239 243 265 298 302 296 288 268 262 275 276 285 297 318 330 336 337 337 355 359 354 353 354 7 15 17 14 15 11 8 3 3 4 6 3
267 273 277 272 270 258 244 230 235 236 257 292 292 285 281 264 269 276 265 267 286 300 312 326 326 329 345 346 334 335 336 343 351 355 353 356 1 1 7 6 8 5 4
260 272 260 269 256 260 240 230 234 230 251 280 276 275 276 264 260 265 265 273 278 283 296 304 309 320 333 335 329 330 331 334 339 343 341 343 343 348 348 350 350 351 352
257 258 260 266 269 260 243 226 236 232 254 256 267 270 271 268 263 265 277 276 284 290 296 300 309 318 322 324 326 326 322 325 329 332 329 330 332 334 333 334 334 336 337
260 259 254 259 268 253 240 228 230 238 242 252 268 265 272 264 262 269 281 278 275 278 285 287 293 307 310 310 316 315 314 313 313 318 315 317 321 321 321 323 324 326 327
254 256 258 257 256 252 233 229 227 238 233 250 263 259 261 266 266 264 270 276 278 276 279 282 283 286 297 305 308 307 303 304 303 312 309 310 309 310 313 317 319 322 322
252 257 258 245 249 252 230 228 231 224 232 243 255 262 261 262 264 262 269 268 269 269 273 275 278 285 288 291 294 298 300 299 299 299 299 300 301 302 308 315 318 319 320
257 259 255 243 238 246 234 225 224 226 233 243 256 264 265 263 266 261 268 271 268 271 267 275 277 288 284 287 292 295 292 294 295 294 291 294 296 301 309 312 314 316 315
259 258 261 254 238 236 239 233 226 233 242 250 256 267 270 270 268 264 265 264 264 266 269 263 265 271 281 286 289 288 288 290 294 296 294 294 294 296 299 301 306 308 308
256 258 261 260 244 240 236 236 244 244 246 254 255 265 272 274 272 269 269 268 265 268 265 269 272 273 279 282 284 287 289 292 294 296 295 288 290 291 293 297 302 305 305
252 260 259 257 251 246 246 242 248 252 255 256 259 263 270 273 275 274 274 275 274 275 273 273 278 281 282 283 285 286 290 292 294 295 294 296 293 291 293 296 299 301 302
260 254 260 260 254 248 248 249 248 253 256 259 258 266 267 269 271 273 273 278 280 279 278 278 278 281 285 287 289 290 291 292 291 291 294 294 294 296 296 294 297 299 299
264 255 256 261 262 255 257 258 254 254 258 259 264 261 267 267 267 269 271 273 279 278 279 277 277 280 286 292 289 288 289 295 297 298 298 297 298 299 297 300 300 300 300
259 264 258 262 265 264 265 266 268 262 256 256 256 259 257 264 265 268 270 271 278 274 276 277 280 279 282 286 285 290 297 296 296 299 300 298 302 299 298 300 301 301 299
270 266 257 256 261 265 265 267 267 266 263 257 254 254 255 263 267 270 270 269 277 270 275 276 274 279 285 276 287 291 294 292 294 299 301 302 303 301 300 299 300 299 298
266 271 265 257 255 261 262 260 263 265 267 266 263 260 259 255 261 264 265 264 270 272 271 277 273 277 281 286 286 294 295 297 300 304 304 307 304 302 301 302 302 301 298
268 270 264 255 253 253 255 258 259 264 265 266 262 252 251 254 258 260 264 266 268 269 271 275 275 275 282 286 289 288 288 291 295 303 305 305 300 301 301 300 300 298 300
270 264 264 257 246 246 249 254 254 259 263 263 262 257 254 254 258 261 264 270 272 272 273 275 279 278 280 285 286 289 289 291 294 299 305 303 302 302 300 299 300 302 299
267 257 254 257 259 249 244 249 254 256 259 261 262 262 259 256 260 262 265 269 273 276 277 276 276 278 278 284 286 289 289 292 292 298 303 304 305 303 304 306 304 304 302